Cordova, AK

5:16 AM AKDT on August 26, 2016 (GMT -0800)
Cordova-Smith

Weather History for PACV - March, 2013

Change the Weather History Date:

Saturday, March 23, 2013

  Actual Average Record
Temperature  
Mean Temperature 34 °F -  
Max Temperature 36 °F 39 °F 61 °F (2014)
Min Temperature 32 °F 24 °F -1 °F (1951)
Degree Days  
Heating Degree Days 32    
Moisture  
Dew Point 31 °F    
Average Humidity 91    
Maximum Humidity 96    
Minimum Humidity 87    
Precipitation  
Precipitation 0.86 in - - ()
Snow  
Snow 0.00 in - - ()
Snow Depth 21.00 in    
Sea Level Pressure  
Sea Level Pressure 29.94 in    
Wind  
Wind Speed 11 mph (ESE)    
Max Wind Speed 15 mph    
Max Gust Speed 23 mph    
Visibility 2 miles    
Events Fog , Rain , Snow    
Averages and records for this station are not official NWS values.
T = Trace of Precipitation, MM = Missing Value Source: NWS Daily Summary

Daily Weather History Graph

Daily Weather History Graph

Search for Another Location

Airport or City:

Trip Planner

Search our weather history database for the weather conditions in past years. The results will help you decide how hot, cold, wet, or windy it might be!

Date:

Astronomy

Mar. 23, 2013 Rise Set
Actual Time 7:32 AM AKDT 8:05 PM AKDT
Civil Twilight 6:50 AM AKDT 8:47 PM AKDT
Nautical Twilight 5:58 AM AKDT 9:39 PM AKDT
Astronomical Twilight 5:01 AM AKDT 10:37 PM AKDT
Moon 3:56 PM AKDT (3/23) 6:04 AM AKDT (3/23)
Length of Visible Light 13h 57m
Length of Day
12h 32m
Waxing Gibbous, 86% of the Moon is Illuminated
Mar 23
Waxing Gibbous
Mar 27
Full
Apr 2
Last Quarter
Apr 10
New
Apr 18
First Quarter

Hourly Weather History & Observations

Time (AKDT) Temp. Windchill Dew Point Humidity Pressure Visibility Wind Dir Wind Speed Gust Speed Precip Events Conditions
12:39 AM 32.0 °F 23.0 °F 30.2 °F 93% 30.03 in 0.8 mi East 11.5 mph 23.0 mph 0.05 in Snow Light Snow
12:53 AM 32.0 °F 24.2 °F 30.0 °F 92% 30.02 in 0.8 mi East 9.2 mph 19.6 mph 0.05 in Snow Light Snow
12:56 AM 32.0 °F 24.2 °F 30.2 °F 93% 30.03 in 1.0 mi East 9.2 mph - 0.00 in Snow Light Snow
1:01 AM 32.0 °F 23.6 °F 30.2 °F 93% 30.03 in 0.8 mi East 10.4 mph 18.4 mph 0.01 in Snow Light Snow
1:17 AM 32.0 °F 21.6 °F 30.2 °F 93% 30.02 in 0.5 mi East 15.0 mph 20.7 mph 0.02 in Fog , Snow Snow
1:53 AM 32.0 °F 25.6 °F 30.0 °F 92% 30.01 in 0.5 mi ENE 6.9 mph - 0.06 in Fog , Snow Snow
2:05 AM 32.0 °F 22.5 °F 30.2 °F 93% 30.01 in 0.8 mi ESE 12.7 mph 18.4 mph 0.01 in Snow Light Snow
2:24 AM 33.8 °F 24.8 °F 30.2 °F 87% 30.00 in 1.2 mi East 12.7 mph 21.9 mph 0.02 in Snow Light Snow
2:53 AM 32.0 °F 23.0 °F 30.0 °F 92% 30.00 in 0.8 mi ESE 11.5 mph 20.7 mph 0.02 in Snow Light Snow
2:57 AM 32.0 °F 23.0 °F 30.2 °F 93% 30.00 in 1.0 mi ESE 11.5 mph 20.7 mph 0.00 in Snow Light Snow
3:09 AM 32.0 °F 23.0 °F 30.2 °F 93% 30.00 in 1.0 mi ESE 11.5 mph - 0.01 in Snow Light Snow
3:12 AM 32.0 °F 23.6 °F 30.2 °F 93% 30.00 in 0.8 mi ESE 10.4 mph - 0.01 in Snow Light Snow
3:20 AM 32.0 °F 23.6 °F 30.2 °F 93% 30.00 in 0.2 mi ESE 10.4 mph 20.7 mph 0.02 in Fog , Snow Heavy Snow
3:53 AM 32.0 °F 22.1 °F 30.9 °F 96% 29.99 in 0.5 mi ESE 13.8 mph - 0.07 in Fog , Snow Snow
4:49 AM 32.0 °F 22.5 °F 30.2 °F 93% 29.97 in 0.8 mi ESE 12.7 mph 19.6 mph 0.05 in Snow Light Snow
4:53 AM 33.1 °F 23.0 °F 30.9 °F 92% 29.97 in 1.0 mi East 15.0 mph - 0.05 in Snow Light Snow
5:09 AM 33.8 °F 24.8 °F 30.2 °F 87% 29.97 in 0.8 mi East 12.7 mph 19.6 mph 0.00 in Snow Light Snow
5:23 AM 33.8 °F 25.3 °F 30.2 °F 87% 29.96 in 1.0 mi East 11.5 mph 19.6 mph 0.01 in Snow Light Snow
5:31 AM 33.8 °F 24.8 °F 30.2 °F 87% 29.96 in 0.8 mi East 12.7 mph 20.7 mph 0.01 in Snow Light Snow
5:42 AM 33.8 °F 24.8 °F 30.2 °F 87% 29.95 in 0.8 mi East 12.7 mph 20.7 mph 0.01 in Snow Light Snow
5:53 AM 33.1 °F 24.9 °F 30.9 °F 92% 29.96 in 0.8 mi East 10.4 mph - 0.01 in Snow Light Snow
6:12 AM 33.8 °F 24.8 °F 30.2 °F 87% 29.95 in 1.0 mi ESE 12.7 mph 20.7 mph 0.01 in Snow Light Snow
6:21 AM 33.8 °F 24.3 °F 30.2 °F 87% 29.94 in 0.8 mi ESE 13.8 mph - 0.01 in Snow Light Snow
6:53 AM 33.1 °F 23.9 °F 30.9 °F 92% 29.94 in 0.8 mi East 12.7 mph 20.7 mph 0.02 in Snow Light Snow
7:53 AM 33.1 °F 24.4 °F 30.9 °F 92% 29.93 in 0.8 mi East 11.5 mph - 0.02 in Snow Light Snow
8:01 AM 33.8 °F 24.8 °F 30.2 °F 87% 29.92 in 0.5 mi ESE 12.7 mph - 0.00 in Fog , Snow Snow
8:12 AM 33.8 °F 24.8 °F 30.2 °F 87% 29.92 in 0.5 mi East 12.7 mph 19.6 mph 0.01 in Fog , Snow Snow
8:23 AM 33.8 °F 25.8 °F 30.2 °F 87% 29.92 in 0.5 mi East 10.4 mph 19.6 mph 0.01 in Fog , Snow Snow
8:53 AM 33.1 °F 23.4 °F 30.9 °F 92% 29.92 in 0.5 mi East 13.8 mph - 0.02 in Fog , Snow Snow
9:53 AM 33.1 °F 23.0 °F 30.9 °F 92% 29.91 in 0.5 mi East 15.0 mph 23.0 mph 0.04 in Fog , Snow Snow
10:01 AM 33.8 °F 24.3 °F 30.2 °F 87% 29.91 in 0.8 mi East 13.8 mph 21.9 mph 0.00 in Snow Light Snow
10:22 AM 33.8 °F 24.8 °F 30.2 °F 87% 29.91 in 0.8 mi East 12.7 mph 21.9 mph 0.01 in Snow Light Snow
10:34 AM 33.8 °F 25.3 °F 32.0 °F 93% 29.91 in 0.5 mi East 11.5 mph - 0.02 in Fog , Snow Snow
10:53 AM 33.1 °F 23.9 °F 30.9 °F 92% 29.91 in 0.5 mi East 12.7 mph 23.0 mph 0.03 in Fog , Snow Snow
11:53 AM 33.1 °F 24.4 °F 32.0 °F 96% 29.91 in 0.5 mi East 11.5 mph - 0.05 in Fog , Snow Snow
12:53 PM 33.1 °F 24.4 °F 32.0 °F 96% 29.91 in 0.5 mi ESE 11.5 mph - 0.05 in Fog , Snow Snow
1:53 PM 33.1 °F 25.5 °F 32.0 °F 96% 29.91 in 0.5 mi East 9.2 mph - 0.05 in Fog , Snow Snow
2:01 PM 33.8 °F 26.4 °F 32.0 °F 93% 29.90 in 0.8 mi ESE 9.2 mph - 0.00 in Snow Light Snow
2:29 PM 33.8 °F 26.4 °F 32.0 °F 93% 29.90 in 0.5 mi ESE 9.2 mph 17.3 mph 0.02 in Fog , Snow Snow
2:53 PM 33.1 °F 25.5 °F 32.0 °F 96% 29.90 in 0.5 mi East 9.2 mph - 0.05 in Fog , Snow Snow
3:17 PM 33.8 °F 27.0 °F 32.0 °F 93% 29.89 in 0.8 mi East 8.1 mph - 0.02 in Snow Light Snow
3:20 PM 33.8 °F 27.7 °F 32.0 °F 93% 29.89 in 1.0 mi ESE 6.9 mph - 0.02 in Snow Light Snow
3:42 PM 33.8 °F 27.0 °F 32.0 °F 93% 29.89 in 2.5 mi ESE 8.1 mph - 0.04 in Snow Light Snow
3:53 PM 34.0 °F 28.0 °F 32.0 °F 92% 29.88 in 2.0 mi ESE 6.9 mph - 0.05 in Rain , Snow Light Rain
4:03 PM 33.8 °F 28.6 °F 32.0 °F 93% 29.88 in 3.0 mi ESE 5.8 mph - 0.00 in Rain , Snow Light Rain
4:53 PM 34.0 °F 28.8 °F 32.0 °F 92% 29.88 in 3.0 mi ESE 5.8 mph - 0.03 in Rain , Snow Light Snow
5:53 PM 35.1 °F 29.3 °F 32.0 °F 89% 29.88 in 3.0 mi East 6.9 mph - 0.03 in Rain , Snow Light Snow
6:53 PM 34.0 °F 28.8 °F 32.0 °F 92% 29.87 in 4.0 mi East 5.8 mph - 0.03 in Rain , Snow Light Snow
7:53 PM 34.0 °F 29.8 °F 32.0 °F 92% 29.87 in 5.0 mi East 4.6 mph - 0.02 in Rain , Snow Light Snow
8:53 PM 34.0 °F 28.0 °F 32.0 °F 92% 29.88 in 5.0 mi East 6.9 mph - 0.03 in Snow Light Snow
9:53 PM 34.0 °F 31.0 °F 32.0 °F 92% 29.88 in 7.0 mi East 3.5 mph - 0.04 in Rain , Snow Light Rain
10:53 PM 35.1 °F 32.2 °F 32.0 °F 89% 29.87 in 9.0 mi East 3.5 mph - 0.02 in Rain , Snow Light Rain
11:53 PM 35.1 °F 32.2 °F 32.0 °F 89% 29.87 in 10.0 mi ESE 3.5 mph - 0.02 in Rain , Snow Light Rain